Showing default

COSMOS 2433 (GLONASS), 32275

Orbit data source: Space-Track

COSMOS 2433 (GLONASS), 32275 is a Commonwealth of Independent States-origin payload satellite in MEO that was launched on Fri, 26 Oct 2007 UTC via a PROTON-K/DM-2 launch vehicle from the Tyuratam Missile And Space Complex (TTMTR). Payloads include a variety of satellites, spacecraft, and rockets equipped with specific instruments for various scientific and technological missions. These include communications satellites like Starlink; space stations such as the ISS; scientific satellites like the Hubble; Earth observation satellites from companies like Planet Labs, Umbra, and HawkEye 360; GPS; miniature CubeSats for education and research; and military/defense satellites.

Loading next visibility...
COSMOS 2433 (GLONASS) details
Identifier
32275, 2007-052A
Orbit
MEO
Last TLE update1 day ago
Origin
Flag of CISKVR/IACG (CIS)
ManufacturerResehetnev ISS
MissionOperational Defense Navigation
Bus & MotorURAGAN, Unknown motor
Mass1,450 kg wet, ~1,200 kg dry
Launch date (UTC)
2007-10-26 (17 years ago)
Launch vehicle
PROTON-K/DM-2
Launch site
Tyuratam Missile And Space Complex (TTMTR)
Object type
Payload
Rocket body
Debris
Shape & HBRCyl + 1 Ant + 2 Pan, 7.8 m
Radar Cross Section8.467 m², Large (>1 m²)

Expand to show TLE details & history

TLE from 1 day ago
0 COSMOS 2433 (GLONASS)
1 32275U 07052A   24360.20711361 -.00000056  00000-0  00000-0 0  9991
2 32275  65.8587 334.0129 0005279 261.9053  98.0394  2.13104086133578
Epoch: 2024-12-25T04:58Z
Definitive object data (Epoch: 2024-12-25T04:58:14.615Z)
Latitude-0.00002°
Longitude165.23793°
Altitude19,132.185 km
Speed3.953 km/s
True Right ascension22h 16m 00s
True Declination0° 00' 00"
Sunlit
Object was in daylight at TLE epoch
Visualization TLE readout
Latitude-62.418°
Longitude44.17769°
Altitude19,139.629 km
Speed3.954 km/s
Apparent Right ascension15h 45m 19s
Apparent Declination-70° 29' 31"
Sunlit
Object is in daylight
Visualization observer readout
Local Sidereal Time10:51:58
Azimuth157.812° S
Elevation-32.099°
Doppler factor1
Orbital elements
Apogee altitude19,142.772 km
Perigee altitude19,115.841 km
Semi-major axis25,507.444 km
Eccentricity0.0005279
Inclination65.8587°
RAAN334.0129°
Arg. of periapsis261.9053°
True anomaly98.09929°
Mean anomaly98.0394°
Eccentric anomaly98.06935°
Mean motion0.53277 °/min
BSTARUnknown
Orbital period675.71 mins
Loading maneuver chart data...
Loading historical data...
Loading historical data...
Loading historical data...
Loading historical data...
Loading historical data...
Loading historical data...
Loading historical data...

COSMOS 2433 (GLONASS) Visibility forecast

Observer location: undefined°, undefined

Span
Click to sort rows by Start time (UTC) header in descending order
Start Az.
Max El. time (UTC)
Max El. Az.
Max El.
End time (UTC)
End Az.
375 mins2024-12-27 01:41:36.767Z232.023° WSW2024-12-27 04:48:36.767Z358.787° N39.67°2024-12-27 07:56:36.767Z126.655° SE
|